Location: Briis
(48.6240°N, 2.1211°E)
Time: 01:32:02
(UTC+00:00)

Cosmos 1844 - Pass Details

Date: 25 September 2020
Orbit: 824 x 866 km, 70.9° (Epoch: 23 October)

Event Time Altitude Azimuth Distance (km) Brightness Sun altitude
Rises 04:36:39 0° 328° (NNW) 3,378 6.6 -11.7°
Reaches altitude 10° 04:39:08 10° 324° (NW) 2,437 5.9 -11.3°
Maximum altitude 04:44:33 54° 249° (WSW) 1,001 3.8 -10.4°
Drops below altitude 10° 04:49:55 10° 173° (S) 2,420 6.1 -9.5°
Sets 04:52:23 0° 169° (S) 3,351 6.9 -9.1°
